Year,Month,Day,Hour,Minute,Value (Times are PST for temperature in C)
2008,04,12,00,00,9.10
2008,04,12,00,01,9.10
2008,04,12,00,02,9.10
2008,04,12,00,03,9.10
2008,04,12,00,04,9.10
2008,04,12,00,05,9.10
2008,04,12,00,06,9.10
2008,04,12,00,07,9.10
2008,04,12,00,08,9.00
2008,04,12,00,09,9.00
2008,04,12,00,10,9.00
2008,04,12,00,11,9.00
2008,04,12,00,12,9.00
2008,04,12,00,13,9.00
2008,04,12,00,14,9.00
2008,04,12,00,15,9.00
2008,04,12,00,16,8.90
2008,04,12,00,17,8.90
2008,04,12,00,18,8.90
2008,04,12,00,19,9.00
2008,04,12,00,20,9.00
2008,04,12,00,21,9.00
2008,04,12,00,22,9.00
2008,04,12,00,23,8.90
2008,04,12,00,24,8.90
2008,04,12,00,25,8.90
2008,04,12,00,26,8.90
2008,04,12,00,27,8.90
2008,04,12,00,28,8.90
2008,04,12,00,29,8.90
2008,04,12,00,30,8.90
2008,04,12,00,31,8.90
2008,04,12,00,32,8.90
2008,04,12,00,33,8.90
2008,04,12,00,34,8.90
2008,04,12,00,35,8.90
2008,04,12,00,36,8.90
2008,04,12,00,37,8.90
2008,04,12,00,38,8.90
2008,04,12,00,39,8.90
2008,04,12,00,40,8.90
2008,04,12,00,41,8.90
2008,04,12,00,42,8.90
2008,04,12,00,43,8.90
2008,04,12,00,44,8.90
2008,04,12,00,45,8.90
2008,04,12,00,46,8.90
2008,04,12,00,47,8.90
2008,04,12,00,48,8.90
2008,04,12,00,49,8.90
2008,04,12,00,50,8.90
2008,04,12,00,51,9.00
2008,04,12,00,52,9.00
2008,04,12,00,53,9.00
2008,04,12,00,54,9.00
2008,04,12,00,55,9.00
2008,04,12,00,56,9.00
2008,04,12,00,57,9.00
2008,04,12,00,58,9.00
2008,04,12,00,59,9.00
2008,04,12,01,00,9.00
2008,04,12,01,01,9.00
2008,04,12,01,02,9.00
2008,04,12,01,03,9.00
2008,04,12,01,04,9.00
2008,04,12,01,05,9.00
2008,04,12,01,06,9.00
2008,04,12,01,07,9.00
2008,04,12,01,08,9.00
2008,04,12,01,09,9.00
2008,04,12,01,10,9.00
2008,04,12,01,11,9.00
2008,04,12,01,12,9.00
2008,04,12,01,13,9.00
2008,04,12,01,14,9.00
2008,04,12,01,15,9.00
2008,04,12,01,16,9.00
2008,04,12,01,17,9.00
2008,04,12,01,18,8.90
2008,04,12,01,19,8.90
2008,04,12,01,20,8.90
2008,04,12,01,21,8.90
2008,04,12,01,22,8.90
2008,04,12,01,23,8.90
2008,04,12,01,24,8.90
2008,04,12,01,25,8.90
2008,04,12,01,26,8.90
2008,04,12,01,27,8.90
2008,04,12,01,28,8.90
2008,04,12,01,29,8.90
2008,04,12,01,30,8.90
2008,04,12,01,31,8.90
2008,04,12,01,32,8.90
2008,04,12,01,33,8.90
2008,04,12,01,34,8.90
2008,04,12,01,35,8.90
2008,04,12,01,36,8.90
2008,04,12,01,37,8.90
2008,04,12,01,38,8.90
2008,04,12,01,39,8.90
2008,04,12,01,40,8.90
2008,04,12,01,41,8.90
2008,04,12,01,42,8.90
2008,04,12,01,43,8.90
2008,04,12,01,44,8.90
2008,04,12,01,45,8.90
2008,04,12,01,46,9.00
2008,04,12,01,47,8.90
2008,04,12,01,48,8.90
2008,04,12,01,49,8.90
2008,04,12,01,50,8.90
2008,04,12,01,51,9.00
2008,04,12,01,52,9.00
2008,04,12,01,53,9.00
2008,04,12,01,54,8.90
2008,04,12,01,55,8.90
2008,04,12,01,56,8.90
2008,04,12,01,57,8.90
2008,04,12,01,58,8.90
2008,04,12,01,59,8.90
2008,04,12,02,00,8.90
2008,04,12,02,01,8.90
2008,04,12,02,02,8.90
2008,04,12,02,03,8.90
2008,04,12,02,04,8.90
2008,04,12,02,05,8.90
2008,04,12,02,06,8.90
2008,04,12,02,07,8.90
2008,04,12,02,08,8.90
2008,04,12,02,09,8.90
2008,04,12,02,10,8.90
2008,04,12,02,11,8.90
2008,04,12,02,12,8.90
2008,04,12,02,13,8.90
2008,04,12,02,14,8.90
2008,04,12,02,15,8.90
2008,04,12,02,16,8.90
2008,04,12,02,17,8.90
2008,04,12,02,18,8.90
2008,04,12,02,19,8.90
2008,04,12,02,20,8.90
2008,04,12,02,21,8.90
2008,04,12,02,22,8.90
2008,04,12,02,23,8.90
2008,04,12,02,24,8.80
2008,04,12,02,25,8.80
2008,04,12,02,26,8.80
2008,04,12,02,27,8.80
2008,04,12,02,28,8.80
2008,04,12,02,29,8.80
2008,04,12,02,30,8.80
2008,04,12,02,31,8.80
2008,04,12,02,32,8.80
2008,04,12,02,33,8.80
2008,04,12,02,34,8.80
2008,04,12,02,35,8.80
2008,04,12,02,36,8.80
2008,04,12,02,37,8.80
2008,04,12,02,38,8.80
2008,04,12,02,39,8.80
2008,04,12,02,40,8.80
2008,04,12,02,41,8.80
2008,04,12,02,42,8.80
2008,04,12,02,43,8.80
2008,04,12,02,44,8.80
2008,04,12,02,45,8.80
2008,04,12,02,46,8.80
2008,04,12,02,47,8.80
2008,04,12,02,48,8.80
2008,04,12,02,49,8.80
2008,04,12,02,50,8.80
2008,04,12,02,51,8.80
2008,04,12,02,52,8.80
2008,04,12,02,53,8.80
2008,04,12,02,54,8.80
2008,04,12,02,55,8.80
2008,04,12,02,56,8.80
2008,04,12,02,57,8.80
2008,04,12,02,58,8.80
2008,04,12,02,59,8.80
2008,04,12,03,00,8.70
2008,04,12,03,01,8.70
2008,04,12,03,02,8.70
2008,04,12,03,03,8.70
2008,04,12,03,04,8.70
2008,04,12,03,05,8.70
2008,04,12,03,06,8.70
2008,04,12,03,07,8.70
2008,04,12,03,08,8.70
2008,04,12,03,09,8.70
2008,04,12,03,10,8.70
2008,04,12,03,11,8.70
2008,04,12,03,12,8.70
2008,04,12,03,13,8.70
2008,04,12,03,14,8.60
2008,04,12,03,15,8.60
2008,04,12,03,16,8.60
2008,04,12,03,17,8.60
2008,04,12,03,18,8.60
2008,04,12,03,19,8.60
2008,04,12,03,20,8.60
2008,04,12,03,21,8.60
2008,04,12,03,22,8.60
2008,04,12,03,23,8.60
2008,04,12,03,24,8.60
2008,04,12,03,25,8.60
2008,04,12,03,26,8.60
2008,04,12,03,27,8.60
2008,04,12,03,28,8.60
2008,04,12,03,29,8.60
2008,04,12,03,30,8.60
2008,04,12,03,31,8.60
2008,04,12,03,32,8.60
2008,04,12,03,33,8.60
2008,04,12,03,34,8.50
2008,04,12,03,35,8.50
2008,04,12,03,36,8.50
2008,04,12,03,37,8.50
2008,04,12,03,38,8.50
2008,04,12,03,39,8.50
2008,04,12,03,40,8.50
2008,04,12,03,41,8.50
2008,04,12,03,42,8.40
2008,04,12,03,43,8.40
2008,04,12,03,44,8.40
2008,04,12,03,45,8.40
2008,04,12,03,46,8.40
2008,04,12,03,47,8.40
2008,04,12,03,48,8.40
2008,04,12,03,49,8.40
2008,04,12,03,50,8.40
2008,04,12,03,51,8.40
2008,04,12,03,52,8.40
2008,04,12,03,53,8.40
2008,04,12,03,54,8.40
2008,04,12,03,55,8.40
2008,04,12,03,56,8.40
2008,04,12,03,57,8.40
2008,04,12,03,58,8.30
2008,04,12,03,59,8.30
2008,04,12,04,00,8.30
2008,04,12,04,01,8.30
2008,04,12,04,02,8.30
2008,04,12,04,03,8.30
2008,04,12,04,04,8.30
2008,04,12,04,05,8.30
2008,04,12,04,06,8.30
2008,04,12,04,07,8.30
2008,04,12,04,08,8.30
2008,04,12,04,09,8.30
2008,04,12,04,10,8.30
2008,04,12,04,11,8.30
2008,04,12,04,12,8.30
2008,04,12,04,13,8.30
2008,04,12,04,14,8.30
2008,04,12,04,15,8.30
2008,04,12,04,16,8.20
2008,04,12,04,17,8.20
2008,04,12,04,18,8.20
2008,04,12,04,19,8.20
2008,04,12,04,20,8.20
2008,04,12,04,21,8.20
2008,04,12,04,22,8.20
2008,04,12,04,23,8.20
2008,04,12,04,24,8.20
2008,04,12,04,25,8.10
2008,04,12,04,26,8.10
2008,04,12,04,27,8.10
2008,04,12,04,28,8.10
2008,04,12,04,29,8.10
2008,04,12,04,30,8.10
2008,04,12,04,31,8.00
2008,04,12,04,32,8.00
2008,04,12,04,33,8.00
2008,04,12,04,34,7.90
2008,04,12,04,35,7.90
2008,04,12,04,36,7.90
2008,04,12,04,37,7.80
2008,04,12,04,38,7.80
2008,04,12,04,39,7.80
2008,04,12,04,40,7.80
2008,04,12,04,41,7.80
2008,04,12,04,42,7.70
2008,04,12,04,43,7.70
2008,04,12,04,44,7.60
2008,04,12,04,45,7.60
2008,04,12,04,46,7.60
2008,04,12,04,47,7.60
2008,04,12,04,48,7.60
2008,04,12,04,49,7.60
2008,04,12,04,50,7.50
2008,04,12,04,51,7.50
2008,04,12,04,52,7.50
2008,04,12,04,53,7.50
2008,04,12,04,54,7.50
2008,04,12,04,55,7.50
2008,04,12,04,56,7.40
2008,04,12,04,57,7.40
2008,04,12,04,58,7.40
2008,04,12,04,59,7.40
2008,04,12,05,00,7.40
2008,04,12,05,01,7.40
2008,04,12,05,02,7.40
2008,04,12,05,03,7.30
2008,04,12,05,04,7.40
2008,04,12,05,05,7.40
2008,04,12,05,06,7.40
2008,04,12,05,07,7.40
2008,04,12,05,08,7.30
2008,04,12,05,09,7.30
2008,04,12,05,10,7.30
2008,04,12,05,11,7.30
2008,04,12,05,12,7.30
2008,04,12,05,13,7.40
2008,04,12,05,14,7.40
2008,04,12,05,15,7.40
2008,04,12,05,16,7.40
2008,04,12,05,17,7.40
2008,04,12,05,18,7.40
2008,04,12,05,19,7.40
2008,04,12,05,20,7.40
2008,04,12,05,21,7.40
2008,04,12,05,22,7.40
2008,04,12,05,23,7.40
2008,04,12,05,24,7.40
2008,04,12,05,25,7.40
2008,04,12,05,26,7.30
2008,04,12,05,27,7.30
2008,04,12,05,28,7.30
2008,04,12,05,29,7.30
2008,04,12,05,30,7.40
2008,04,12,05,31,7.40
2008,04,12,05,32,7.40
2008,04,12,05,33,7.40
2008,04,12,05,34,7.40
2008,04,12,05,35,7.40
2008,04,12,05,36,7.40
2008,04,12,05,37,7.40
2008,04,12,05,38,7.40
2008,04,12,05,39,7.40
2008,04,12,05,40,7.40
2008,04,12,05,41,7.40
2008,04,12,05,42,7.40
2008,04,12,05,43,7.40
2008,04,12,05,44,7.40
2008,04,12,05,45,7.40
2008,04,12,05,46,7.30
2008,04,12,05,47,7.30
2008,04,12,05,48,7.30
2008,04,12,05,49,7.30
2008,04,12,05,50,7.30
2008,04,12,05,51,7.30
2008,04,12,05,52,7.30
2008,04,12,05,53,7.40
2008,04,12,05,54,7.40
2008,04,12,05,55,7.40
2008,04,12,05,56,7.40
2008,04,12,05,57,7.40
2008,04,12,05,58,7.50
2008,04,12,05,59,7.50
2008,04,12,06,00,7.60
2008,04,12,06,01,7.60
2008,04,12,06,02,7.60
2008,04,12,06,03,7.60
2008,04,12,06,04,7.60
2008,04,12,06,05,7.60
2008,04,12,06,06,7.60
2008,04,12,06,07,7.70
2008,04,12,06,08,7.70
2008,04,12,06,09,7.70
2008,04,12,06,10,7.70
2008,04,12,06,11,7.70
2008,04,12,06,12,7.70
2008,04,12,06,13,7.70
2008,04,12,06,14,7.70
2008,04,12,06,15,7.70
2008,04,12,06,16,7.70
2008,04,12,06,17,7.70
2008,04,12,06,18,7.70
2008,04,12,06,19,7.70
2008,04,12,06,20,7.70
2008,04,12,06,21,7.70
2008,04,12,06,22,7.70
2008,04,12,06,23,7.70
2008,04,12,06,24,7.70
2008,04,12,06,25,7.70
2008,04,12,06,26,7.70
2008,04,12,06,27,7.70
2008,04,12,06,28,7.80
2008,04,12,06,29,7.80
2008,04,12,06,30,7.80
2008,04,12,06,31,7.80
2008,04,12,06,32,7.80
2008,04,12,06,33,7.80
2008,04,12,06,34,7.80
2008,04,12,06,35,7.80
2008,04,12,06,36,7.80
2008,04,12,06,37,7.80
2008,04,12,06,38,7.80
2008,04,12,06,39,7.80
2008,04,12,06,40,7.80
2008,04,12,06,41,7.80
2008,04,12,06,42,7.80
2008,04,12,06,43,7.80
2008,04,12,06,44,7.80
2008,04,12,06,45,7.80
2008,04,12,06,46,7.80
2008,04,12,06,47,7.90
2008,04,12,06,48,7.90
2008,04,12,06,49,7.90
2008,04,12,06,50,7.90
2008,04,12,06,51,7.90
2008,04,12,06,52,7.90
2008,04,12,06,53,7.90
2008,04,12,06,54,8.00
2008,04,12,06,55,8.00
2008,04,12,06,56,8.00
2008,04,12,06,57,8.00
2008,04,12,06,58,8.00
2008,04,12,06,59,8.10
2008,04,12,07,00,8.10
2008,04,12,07,01,8.10
2008,04,12,07,02,8.10
2008,04,12,07,03,8.20
2008,04,12,07,04,8.20
2008,04,12,07,05,8.20
2008,04,12,07,06,8.20
2008,04,12,07,07,8.30
2008,04,12,07,08,8.30
2008,04,12,07,09,8.30
2008,04,12,07,10,8.30
2008,04,12,07,11,8.40
2008,04,12,07,12,8.40
2008,04,12,07,13,8.40
2008,04,12,07,14,8.40
2008,04,12,07,15,8.40
2008,04,12,07,16,8.50
2008,04,12,07,17,8.50
2008,04,12,07,18,8.50
2008,04,12,07,19,8.50
2008,04,12,07,20,8.50
2008,04,12,07,21,8.60
2008,04,12,07,22,8.50
2008,04,12,07,23,8.50
2008,04,12,07,24,8.50
2008,04,12,07,25,8.50
2008,04,12,07,26,8.60
2008,04,12,07,27,8.60
2008,04,12,07,28,8.60
2008,04,12,07,29,8.60
2008,04,12,07,30,8.60
2008,04,12,07,31,8.60
2008,04,12,07,32,8.60
2008,04,12,07,33,8.60
2008,04,12,07,34,8.60
2008,04,12,07,35,8.60
2008,04,12,07,36,8.60
2008,04,12,07,37,8.70
2008,04,12,07,38,8.70
2008,04,12,07,39,8.70
2008,04,12,07,40,8.70
2008,04,12,07,41,8.70
2008,04,12,07,42,8.70
2008,04,12,07,43,8.80
2008,04,12,07,44,8.80
2008,04,12,07,45,8.80
2008,04,12,07,46,8.80
2008,04,12,07,47,8.90
2008,04,12,07,48,8.90
2008,04,12,07,49,9.00
2008,04,12,07,50,9.10
2008,04,12,07,51,9.10
2008,04,12,07,52,9.10
2008,04,12,07,53,9.20
2008,04,12,07,54,9.20
2008,04,12,07,55,9.30
2008,04,12,07,56,9.30
2008,04,12,07,57,9.30
2008,04,12,07,58,9.40
2008,04,12,07,59,9.40
2008,04,12,08,00,9.40
2008,04,12,08,01,9.50
2008,04,12,08,02,9.60
2008,04,12,08,03,9.70
2008,04,12,08,04,9.70
2008,04,12,08,05,9.80
2008,04,12,08,06,9.80
2008,04,12,08,07,9.80
2008,04,12,08,08,9.90
2008,04,12,08,09,9.90
2008,04,12,08,10,10.00
2008,04,12,08,11,10.00
2008,04,12,08,12,10.00
2008,04,12,08,13,10.10
2008,04,12,08,14,10.10
2008,04,12,08,15,10.10
2008,04,12,08,16,10.10
2008,04,12,08,17,10.10
2008,04,12,08,18,10.10
2008,04,12,08,19,10.10
2008,04,12,08,20,10.10
2008,04,12,08,21,10.10
2008,04,12,08,22,10.10
2008,04,12,08,23,10.10
2008,04,12,08,24,10.20
2008,04,12,08,25,10.20
2008,04,12,08,26,10.20
2008,04,12,08,27,10.30
2008,04,12,08,28,10.40
2008,04,12,08,29,10.40
2008,04,12,08,30,10.50
2008,04,12,08,31,10.50
2008,04,12,08,32,10.50
2008,04,12,08,33,10.60
2008,04,12,08,34,10.60
2008,04,12,08,35,10.60
2008,04,12,08,36,10.70
2008,04,12,08,37,10.70
2008,04,12,08,38,10.70
2008,04,12,08,39,10.70
2008,04,12,08,40,10.80
2008,04,12,08,41,10.80
2008,04,12,08,42,10.80
2008,04,12,08,43,10.80
2008,04,12,08,44,10.90
2008,04,12,08,45,10.90
2008,04,12,08,46,10.90
2008,04,12,08,47,10.90
2008,04,12,08,48,10.90
2008,04,12,08,49,10.80
2008,04,12,08,50,10.80
2008,04,12,08,51,10.80
2008,04,12,08,52,10.80
2008,04,12,08,53,10.80
2008,04,12,08,54,10.90
2008,04,12,08,55,10.90
2008,04,12,08,56,10.90
2008,04,12,08,57,10.90
2008,04,12,08,58,11.00
2008,04,12,08,59,11.00
2008,04,12,09,00,11.10
2008,04,12,09,01,11.10
2008,04,12,09,02,11.10
2008,04,12,09,03,11.20
2008,04,12,09,04,11.20
2008,04,12,09,05,11.20
2008,04,12,09,06,11.20
2008,04,12,09,07,11.20
2008,04,12,09,08,11.20
2008,04,12,09,09,11.20
2008,04,12,09,10,11.20
2008,04,12,09,11,11.20
2008,04,12,09,12,11.30
2008,04,12,09,13,11.30
2008,04,12,09,14,11.30
2008,04,12,09,15,11.40
2008,04,12,09,16,11.40
2008,04,12,09,17,11.50
2008,04,12,09,18,11.50
2008,04,12,09,19,11.60
2008,04,12,09,20,11.60
2008,04,12,09,21,11.60
2008,04,12,09,22,11.60
2008,04,12,09,23,11.60
2008,04,12,09,24,11.70
2008,04,12,09,25,11.70
2008,04,12,09,26,11.70
2008,04,12,09,27,11.80
2008,04,12,09,28,11.80
2008,04,12,09,29,11.90
2008,04,12,09,30,12.00
2008,04,12,09,31,12.10
2008,04,12,09,32,12.10
2008,04,12,09,33,12.20
2008,04,12,09,34,12.20
2008,04,12,09,35,12.20
2008,04,12,09,36,12.20
2008,04,12,09,37,12.20
2008,04,12,09,38,12.20
2008,04,12,09,39,12.30
2008,04,12,09,40,12.30
2008,04,12,09,41,12.30
2008,04,12,09,42,12.30
2008,04,12,09,43,12.30
2008,04,12,09,44,12.30
2008,04,12,09,45,12.30
2008,04,12,09,46,12.30
2008,04,12,09,47,12.30
2008,04,12,09,48,12.30
2008,04,12,09,49,12.30
2008,04,12,09,50,12.30
2008,04,12,09,51,12.30
2008,04,12,09,52,12.30
2008,04,12,09,53,12.30
2008,04,12,09,54,12.40
2008,04,12,09,55,12.40
2008,04,12,09,56,12.50
2008,04,12,09,57,12.60
2008,04,12,09,58,12.70
2008,04,12,09,59,12.70
2008,04,12,10,00,12.80
2008,04,12,10,01,12.80
2008,04,12,10,02,12.90
2008,04,12,10,03,12.90
2008,04,12,10,04,12.90
2008,04,12,10,05,12.90
2008,04,12,10,06,12.90
2008,04,12,10,07,12.80
2008,04,12,10,08,12.80
2008,04,12,10,09,12.80
2008,04,12,10,10,12.80
2008,04,12,10,11,12.80
2008,04,12,10,12,12.80
2008,04,12,10,13,12.80
2008,04,12,10,14,12.90
2008,04,12,10,15,13.00
2008,04,12,10,16,13.00
2008,04,12,10,17,13.10
2008,04,12,10,18,13.20
2008,04,12,10,19,13.30
2008,04,12,10,20,13.30
2008,04,12,10,21,13.30
2008,04,12,10,22,13.30
2008,04,12,10,23,13.40
2008,04,12,10,24,13.40
2008,04,12,10,25,13.40
2008,04,12,10,26,13.50
2008,04,12,10,27,13.50
2008,04,12,10,28,13.50
2008,04,12,10,29,13.50
2008,04,12,10,30,13.50
2008,04,12,10,31,13.50
2008,04,12,10,32,13.50
2008,04,12,10,33,13.50
2008,04,12,10,34,13.60
2008,04,12,10,35,13.60
2008,04,12,10,36,13.60
2008,04,12,10,37,13.50
2008,04,12,10,38,13.50
2008,04,12,10,39,13.60
2008,04,12,10,40,13.60
2008,04,12,10,41,13.70
2008,04,12,10,42,13.80
2008,04,12,10,43,13.80
2008,04,12,10,44,13.80
2008,04,12,10,45,13.80
2008,04,12,10,46,13.80
2008,04,12,10,47,13.80
2008,04,12,10,48,13.80
2008,04,12,10,49,13.80
2008,04,12,10,50,13.70
2008,04,12,10,51,13.70
2008,04,12,10,52,13.70
2008,04,12,10,53,13.60
2008,04,12,10,54,13.60
2008,04,12,10,55,13.60
2008,04,12,10,56,13.60
2008,04,12,10,57,13.60
2008,04,12,10,58,13.70
2008,04,12,10,59,13.70
2008,04,12,11,00,13.70
2008,04,12,11,01,13.80
2008,04,12,11,02,13.80
2008,04,12,11,03,13.90
2008,04,12,11,04,13.90
2008,04,12,11,05,14.00
2008,04,12,11,06,14.10
2008,04,12,11,07,14.10
2008,04,12,11,08,14.20
2008,04,12,11,09,14.20
2008,04,12,11,10,14.20
2008,04,12,11,11,14.30
2008,04,12,11,12,14.50
2008,04,12,11,13,14.60
2008,04,12,11,14,14.60
2008,04,12,11,15,14.70
2008,04,12,11,16,14.70
2008,04,12,11,17,14.70
2008,04,12,11,18,14.70
2008,04,12,11,19,14.80
2008,04,12,11,20,14.80
2008,04,12,11,21,14.80
2008,04,12,11,22,14.80
2008,04,12,11,23,14.80
2008,04,12,11,24,14.90
2008,04,12,11,25,15.00
2008,04,12,11,26,15.00
2008,04,12,11,27,15.00
2008,04,12,11,28,15.00
2008,04,12,11,29,15.00
2008,04,12,11,30,15.00
2008,04,12,11,31,14.90
2008,04,12,11,32,14.80
2008,04,12,11,33,14.80
2008,04,12,11,34,14.80
2008,04,12,11,35,14.80
2008,04,12,11,36,14.90
2008,04,12,11,37,15.00
2008,04,12,11,38,15.00
2008,04,12,11,39,15.20
2008,04,12,11,40,15.20
2008,04,12,11,41,15.30
2008,04,12,11,42,15.40
2008,04,12,11,43,15.40
2008,04,12,11,44,15.50
2008,04,12,11,45,15.50
2008,04,12,11,46,15.60
2008,04,12,11,47,15.70
2008,04,12,11,48,15.80
2008,04,12,11,49,15.90
2008,04,12,11,50,16.00
2008,04,12,11,51,16.10
2008,04,12,11,52,16.10
2008,04,12,11,53,16.10
2008,04,12,11,54,16.20
2008,04,12,11,55,16.20
2008,04,12,11,56,16.20
2008,04,12,11,57,16.20
2008,04,12,11,58,16.20
2008,04,12,11,59,16.30
2008,04,12,12,00,16.40
2008,04,12,12,01,16.40
2008,04,12,12,02,16.40
2008,04,12,12,03,16.40
2008,04,12,12,04,16.40
2008,04,12,12,05,16.30
2008,04,12,12,06,16.30
2008,04,12,12,07,16.20
2008,04,12,12,08,16.20
2008,04,12,12,09,16.20
2008,04,12,12,10,16.30
2008,04,12,12,11,16.30
2008,04,12,12,12,16.20
2008,04,12,12,13,16.20
2008,04,12,12,14,16.30
2008,04,12,12,15,16.30
2008,04,12,12,16,16.30
2008,04,12,12,17,16.40
2008,04,12,12,18,16.40
2008,04,12,12,19,16.40
2008,04,12,12,20,16.40
2008,04,12,12,21,16.40
2008,04,12,12,22,16.40
2008,04,12,12,23,16.30
2008,04,12,12,24,16.30
2008,04,12,12,25,16.30
2008,04,12,12,26,16.30
2008,04,12,12,27,16.30
2008,04,12,12,28,16.40
2008,04,12,12,29,16.40
2008,04,12,12,30,16.30
2008,04,12,12,31,16.40
2008,04,12,12,32,16.40
2008,04,12,12,33,16.40
2008,04,12,12,34,16.40
2008,04,12,12,35,16.50
2008,04,12,12,36,16.50
2008,04,12,12,37,16.60
2008,04,12,12,38,16.70
2008,04,12,12,39,16.60
2008,04,12,12,40,16.60
2008,04,12,12,41,16.50
2008,04,12,12,42,16.40
2008,04,12,12,43,16.30
2008,04,12,12,44,16.20
2008,04,12,12,45,16.20
2008,04,12,12,46,16.20
2008,04,12,12,47,16.20
2008,04,12,12,48,16.20
2008,04,12,12,49,16.20
2008,04,12,12,50,16.20
2008,04,12,12,51,16.20
2008,04,12,12,52,16.20
2008,04,12,12,53,16.20
2008,04,12,12,54,16.10
2008,04,12,12,55,16.00
2008,04,12,12,56,16.00
2008,04,12,12,57,16.00
2008,04,12,12,58,16.00
2008,04,12,12,59,16.00
2008,04,12,13,00,16.00
2008,04,12,13,01,16.00
2008,04,12,13,02,15.90
2008,04,12,13,03,15.90
2008,04,12,13,04,15.90
2008,04,12,13,05,15.90
2008,04,12,13,06,15.90
2008,04,12,13,07,15.90
2008,04,12,13,08,15.90
2008,04,12,13,09,15.90
2008,04,12,13,10,15.90
2008,04,12,13,11,16.00
2008,04,12,13,12,16.00
2008,04,12,13,13,16.10
2008,04,12,13,14,16.00
2008,04,12,13,15,16.00
2008,04,12,13,16,16.00
2008,04,12,13,17,15.90
2008,04,12,13,18,15.70
2008,04,12,13,19,15.70
2008,04,12,13,20,15.70
2008,04,12,13,21,15.70
2008,04,12,13,22,15.80
2008,04,12,13,23,15.90
2008,04,12,13,24,16.00
2008,04,12,13,25,16.10
2008,04,12,13,26,16.00
2008,04,12,13,27,16.00
2008,04,12,13,28,15.90
2008,04,12,13,29,15.90
2008,04,12,13,30,16.00
2008,04,12,13,31,16.10
2008,04,12,13,32,16.10
2008,04,12,13,33,16.20
2008,04,12,13,34,16.20
2008,04,12,13,35,16.30
2008,04,12,13,36,16.30
2008,04,12,13,37,16.30
2008,04,12,13,38,16.30
2008,04,12,13,39,16.40
2008,04,12,13,40,16.50
2008,04,12,13,41,16.60
2008,04,12,13,42,16.60
2008,04,12,13,43,16.60
2008,04,12,13,44,16.70
2008,04,12,13,45,16.80
2008,04,12,13,46,16.80
2008,04,12,13,47,16.90
2008,04,12,13,48,17.00
2008,04,12,13,49,17.10
2008,04,12,13,50,17.10
2008,04,12,13,51,17.00
2008,04,12,13,52,16.90
2008,04,12,13,53,16.80
2008,04,12,13,54,16.80
2008,04,12,13,55,16.80
2008,04,12,13,56,16.90
2008,04,12,13,57,16.90
2008,04,12,13,58,17.00
2008,04,12,13,59,17.10
2008,04,12,14,00,17.20
2008,04,12,14,01,17.20
2008,04,12,14,02,17.20
2008,04,12,14,03,17.10
2008,04,12,14,04,17.00
2008,04,12,14,05,16.90
2008,04,12,14,06,16.90
2008,04,12,14,07,17.00
2008,04,12,14,08,17.00
2008,04,12,14,09,17.10
2008,04,12,14,10,17.20
2008,04,12,14,11,17.30
2008,04,12,14,12,17.40
2008,04,12,14,13,17.60
2008,04,12,14,14,17.60
2008,04,12,14,15,17.60
2008,04,12,14,16,17.60
2008,04,12,14,17,17.60
2008,04,12,14,18,17.60
2008,04,12,14,19,17.60
2008,04,12,14,20,17.70
2008,04,12,14,21,17.80
2008,04,12,14,22,17.90
2008,04,12,14,23,17.90
2008,04,12,14,24,17.90
2008,04,12,14,25,17.80
2008,04,12,14,26,17.70
2008,04,12,14,27,17.70
2008,04,12,14,28,17.70
2008,04,12,14,29,17.80
2008,04,12,14,30,17.80
2008,04,12,14,31,17.90
2008,04,12,14,32,18.00
2008,04,12,14,33,18.10
2008,04,12,14,34,18.10
2008,04,12,14,35,18.10
2008,04,12,14,36,18.20
2008,04,12,14,37,18.30
2008,04,12,14,38,18.30
2008,04,12,14,39,18.40
2008,04,12,14,40,18.40
2008,04,12,14,41,18.40
2008,04,12,14,42,18.40
2008,04,12,14,43,18.40
2008,04,12,14,44,18.50
2008,04,12,14,45,18.50
2008,04,12,14,46,18.60
2008,04,12,14,47,18.60
2008,04,12,14,48,18.60
2008,04,12,14,49,18.60
2008,04,12,14,50,18.70
2008,04,12,14,51,18.80
2008,04,12,14,52,18.80
2008,04,12,14,53,18.90
2008,04,12,14,54,19.00
2008,04,12,14,55,19.10
2008,04,12,14,56,19.10
2008,04,12,14,57,19.10
2008,04,12,14,58,18.90
2008,04,12,14,59,18.80
2008,04,12,15,00,18.80
2008,04,12,15,01,18.80
2008,04,12,15,02,18.90
2008,04,12,15,03,18.70
2008,04,12,15,04,18.50
2008,04,12,15,05,18.30
2008,04,12,15,06,18.30
2008,04,12,15,07,18.30
2008,04,12,15,08,18.40
2008,04,12,15,09,18.40
2008,04,12,15,10,18.40
2008,04,12,15,11,18.30
2008,04,12,15,12,18.30
2008,04,12,15,13,18.40
2008,04,12,15,14,18.30
2008,04,12,15,15,18.20
2008,04,12,15,16,17.90
2008,04,12,15,17,17.50
2008,04,12,15,18,17.20
2008,04,12,15,19,16.90
2008,04,12,15,20,16.60
2008,04,12,15,21,16.30
2008,04,12,15,22,16.00
2008,04,12,15,23,15.80
2008,04,12,15,24,15.50
2008,04,12,15,25,15.30
2008,04,12,15,26,15.20
2008,04,12,15,27,15.10
2008,04,12,15,28,15.00
2008,04,12,15,29,15.00
2008,04,12,15,30,15.00
2008,04,12,15,31,15.00
2008,04,12,15,32,15.00
2008,04,12,15,33,15.00
2008,04,12,15,34,15.00
2008,04,12,15,35,15.00
2008,04,12,15,36,15.10
2008,04,12,15,37,15.30
2008,04,12,15,38,15.20
2008,04,12,15,39,15.00
2008,04,12,15,40,15.00
2008,04,12,15,41,14.80
2008,04,12,15,42,14.70
2008,04,12,15,43,14.70
2008,04,12,15,44,14.50
2008,04,12,15,45,14.30
2008,04,12,15,46,14.20
2008,04,12,15,47,14.10
2008,04,12,15,48,14.10
2008,04,12,15,49,13.90
2008,04,12,15,50,13.80
2008,04,12,15,51,13.60
2008,04,12,15,52,13.60
2008,04,12,15,53,13.60
2008,04,12,15,54,13.60
2008,04,12,15,55,13.50
2008,04,12,15,56,13.40
2008,04,12,15,57,13.30
2008,04,12,15,58,13.30
2008,04,12,15,59,13.10
2008,04,12,16,00,12.80
2008,04,12,16,01,12.70
2008,04,12,16,02,12.60
2008,04,12,16,03,12.60
2008,04,12,16,04,12.40
2008,04,12,16,05,12.30
2008,04,12,16,06,12.20
2008,04,12,16,07,12.20
2008,04,12,16,08,12.30
2008,04,12,16,09,12.30
2008,04,12,16,10,12.40
2008,04,12,16,11,12.50
2008,04,12,16,12,12.50
2008,04,12,16,13,12.50
2008,04,12,16,14,12.70
2008,04,12,16,15,12.90
2008,04,12,16,16,13.00
2008,04,12,16,17,13.10
2008,04,12,16,18,13.20
2008,04,12,16,19,13.30
2008,04,12,16,20,13.30
2008,04,12,16,21,13.40
2008,04,12,16,22,13.50
2008,04,12,16,23,13.70
2008,04,12,16,24,13.80
2008,04,12,16,25,13.90
2008,04,12,16,26,14.10
2008,04,12,16,27,14.30
2008,04,12,16,28,14.50
2008,04,12,16,29,14.70
2008,04,12,16,30,14.70
2008,04,12,16,31,14.90
2008,04,12,16,32,14.90
2008,04,12,16,33,14.90
2008,04,12,16,34,14.80
2008,04,12,16,35,14.80
2008,04,12,16,36,14.70
2008,04,12,16,37,14.60
2008,04,12,16,38,14.50
2008,04,12,16,39,14.30
2008,04,12,16,40,14.20
2008,04,12,16,41,14.00
2008,04,12,16,42,13.90
2008,04,12,16,43,13.80
2008,04,12,16,44,13.70
2008,04,12,16,45,13.60
2008,04,12,16,46,13.50
2008,04,12,16,47,13.50
2008,04,12,16,48,13.40
2008,04,12,16,49,13.30
2008,04,12,16,50,13.20
2008,04,12,16,51,13.10
2008,04,12,16,52,13.10
2008,04,12,16,53,13.00
2008,04,12,16,54,13.00
2008,04,12,16,55,12.90
2008,04,12,16,56,13.00
2008,04,12,16,57,13.10
2008,04,12,16,58,13.20
2008,04,12,16,59,13.20
2008,04,12,17,00,13.30
2008,04,12,17,01,13.30
2008,04,12,17,02,13.30
2008,04,12,17,03,13.30
2008,04,12,17,04,13.30
2008,04,12,17,05,13.40
2008,04,12,17,06,13.50
2008,04,12,17,07,13.60
2008,04,12,17,08,13.80
2008,04,12,17,09,13.90
2008,04,12,17,10,13.90
2008,04,12,17,11,14.10
2008,04,12,17,12,14.20
2008,04,12,17,13,14.30
2008,04,12,17,14,14.30
2008,04,12,17,15,14.30
2008,04,12,17,16,14.20
2008,04,12,17,17,14.20
2008,04,12,17,18,14.20
2008,04,12,17,19,14.30
2008,04,12,17,20,14.30
2008,04,12,17,21,14.40
2008,04,12,17,22,14.40
2008,04,12,17,23,14.30
2008,04,12,17,24,14.30
2008,04,12,17,25,14.20
2008,04,12,17,26,14.10
2008,04,12,17,27,14.10
2008,04,12,17,28,14.10
2008,04,12,17,29,14.10
2008,04,12,17,30,14.20
2008,04,12,17,31,14.20
2008,04,12,17,32,14.20
2008,04,12,17,33,14.20
2008,04,12,17,34,14.10
2008,04,12,17,35,14.10
2008,04,12,17,36,14.10
2008,04,12,17,37,14.10
2008,04,12,17,38,14.10
2008,04,12,17,39,14.10
2008,04,12,17,40,14.00